Вернуться в каталог

SPOT 5

АктивенНаукаSSO
NORAD 27421·PAYLOAD·🇫🇷 France

Запущен May 4, 2002 с Guiana Space Centre

Loading…

Ближайшие Пролёты (ближайшие 24 часа)

TLE

СвежийSource: Space-Track

Эпоха: Sep 14, 2026, 12:23 UTC

1 27421U 02021A   26257.51637640  .00000271  00000-0  66837-4 0  9999
2 27421  97.9782 292.3907 0129374 359.1172   0.9778 14.54811573275831

Отслеживайте SPOT 5 в реальном времени с AllMySat

Download on the App Store